Location: Camaret
(48.2753°N, 4.5961°W)
Time: 04:15:18
(UTC+00:00)

GEOS 3 Rocket - Pass Details

Date: 29 October 2020
Orbit: 770 x 850 km, 115.0° (Epoch: 01 December)

Event Time Altitude Azimuth Distance (km) Brightness Sun altitude
Exits shadow 18:17:19 17° 93° (E) 1,994 5.0 -12.8°
Maximum altitude 18:20:53 37° 35° (NE) 1,282 4.3 -13.3°
Drops below altitude 10° 18:25:49 10° 330° (NNW) 2,482 6.5 -14.2°
Sets 18:28:17 0° 322° (NW) 3,423 7.3 -14.6°
